Location: Favalello
(42.2939°N, 9.2706°E)
Time: 09:29:36
(UTC+00:00)

Cosmos 1980 - Pass Details

Date: 06 December 2019
Orbit: 838 x 848 km, 71.0° (Epoch: 19 January)

Event Time Altitude Azimuth Distance (km) Brightness Sun altitude
Rises 17:15:25 0° 194° (SSW) 3,373 7.3 -15.2°
Reaches altitude 10° 17:17:51 10° 191° (SSW) 2,444 6.5 -15.6°
Maximum altitude 17:23:24 67° 111° (ESE) 910 3.6 -16.6°
Enters shadow 17:27:35 18° 32° (NNE) 1,946 5.2 -17.4°
